星链-4481 (STARLINK-4481 )

导读 | 星芒AI

STARLINK-4481 是 SpaceX 星链计划中的一颗低轨通信卫星,属于第 21 批星链组网卫星(2021 年 11 月发射)。它运行在约 550 公里的近地轨道,旨在为全球用户提供高速互联网服务。该卫星采用先进的相控阵天线和激光通信技术,支持高带宽、低延迟的通信连接。星链项目计划部署数万颗卫星,以构建覆盖全球的宽带网络,尤其服务于偏远地区。STARLINK-4481 在提升全球互联网接入能力方面发挥着重要作用。

基本信息
目录编号:
53418
目录名称:
STARLINK-4481
国际标识:
2022-097AG
轨道中心:
EARTH
卫星名称:
星链-4481
卫星全名:
星链-4481 (STARLINK-4481 )
卫星状态:
在轨 (已飞行1229 天)
发射日期:
2022-08-10 UTC
国别 :
美国 (US)
星等 :
--
轨道信息
数据来源 国际轨道数据
星历时间: 2025-12-20T19:47:07+0800
20小时前
查看轨道信息
半长轴: 6917.888km
偏心率: 0.0001331
轨道倾角: 53.218°
近地点辐角 86.384°
升交点赤经 99.223°
平近点角 273.730°
近地点: 538.83km
远地点: 540.672km
周期: 95.438分钟
每日圈数: 15.088377
详细信息
固有亮度:
5
最大亮度:
2.5
卫星平台:
Starlink v1.5
覆盖范围:
全球
运营商:
太空探索技术公司
运营商所在国:
美国
制造商(研发单位):
太空探索技术公司
制造商所在国:
美国
使用方式:
暂无
卫星简介
星链(Starlink)计划是由太空探索技术公司(SpaceX)提出的一个巨型低轨卫星互联网星座项目,计划在2019年至2024年间在太空搭建由约1.2万颗卫星组成的“星链”网络,其中1584颗将部署在地球上空550千米处的近地轨道,并从2020年开始工作。该卫星仍在工作。
2D轨道图
3D轨道图
轨道高度分析图
轨道倾角分析图
轨道综合分析图
查看轨道综合分析图